Voltar ao catálogo

STARLINK-1559

AtivoComunicaçõesVLEO
NORAD 46077·PAYLOAD·🇺🇸 United States

Lançado Aug 7, 2020 de Cape Canaveral Space Force Station

Loading…

Próximas Passagens (próximas 24 horas)

TLE

AtualizadoSource: CelesTrak SupGP

Época: Sep 14, 2026, 21:50 UTC

1 46077C 20055BC  26257.91020833  .00077702  00000+0  14851-2 0  2574
2 46077  53.0174 260.7587 0003155  29.8635  28.9867 15.47456421    18

Acompanhe STARLINK-1559 em tempo real com AllMySat

Download on the App Store